ASTRA 1KR

Last updated on Tue Sep 22 2026 00:03:11 GMT+0000 (Coordinated Universal Time)

1 29055U 06012A 26264.56412435 .00000116 00000+0 00000+0 0 9996 2 29055 0.7153 82.6028 0003557 95.9153 44.0087 1.00271791 46660
UTC large
Height (km)
Speed (km/s)
/
Latitude / Longitude
Inclination (degrees)
Orbital Period (minutes)
Azimuth
Elevation
Range (km)
Doppler Factor

Next 0 passes for location: London (51.5072 / 0.1276)

No passes found over London.
ASTRA 1KR